Details From LFOB - Beauvais Tille
To LEGE - Girona
Flight Number -
Tags Generated
Created
Modified
Stats Distance 455 nm / 842 km
Max Altitude 0 ft / 0 m
Waypoints 4
Social Downloads 0
Likes 0
Share VATSIM

Download

Looking for another format? Having issues loading an existing format? Contact us
Advertisement - Login to hide

Notes

Generated

Route

LFOB ULT R2251 LEGE

ID Type Via Altitude Latitude Longitude Leg Dist Tot Dist Heading (true) Name
O LFOB APT - 0 ft / 0 m 49.45458˚ 2.11302˚ - 0 nm - -
ULT NDB - 0 ft / 0 m 45.53778˚ 2.41972˚ 235 nm 235 nm 177° / 177° Ussel Thalamy NDB
R2251 FIX - 0 ft / 0 m 41.91570˚ 2.76612˚ 218 nm 453 nm 176° / 176° -
O LEGE APT - 0 ft / 0 m 41.89491˚ 2.75826˚ 1 nm 454 nm 196° / 196° -

Altitude Profile

Advertisement - Login to hide

Weather


0- 5 10 15 20 25 30 35+ Temperature / ° C

Clouds and Precipitation
Forecast for 2018-05-22 12:00 UTC. Updated an hour ago

Ground ~20,000 ft ~40,000 ft Winds

LFOB

Details ICAO LFOB (BVA)
Name Beauvais-Tille
Region France
Timezone Europe/Paris (UTC+2.0)
Stats Elevation 358 ft / 109 m (AMSL)
Location 49.456000° 2.118914°
Runways 2
Magnetic Variation 0.534° E

METAR

LFOB 221230Z AUTO 30005KT 250V020 CAVOK 23/12 Q1013 TEMPO VRB15G25KT 3000 SHRA BKN050CB

Decode

TAF

TAF LFOB 221100Z 2212/2312 33005KT CAVOK TEMPO 2212/2222 3000 SHRA BKN050CB PROB40 TEMPO 2212/2222 VRB15G25KT TSRAGR TEMPO 2303/2306 4000 BR TEMPO 2309/2312 3000 SHRA BKN030CB

Decode

Departure Runways

ID Width Length Bearing (true) Bearing (mag) Surface Threshold Offset Overrun Length
04 82 ft / 25 m 2,321 ft / 707 m 41.41° 40.88° Asphalt 0 ft / 0 m 0 ft / 0 m
12 148 ft / 45 m 7,954 ft / 2,424 m 123.73° 123.20° Asphalt 148 ft / 45 m 0 ft / 0 m
22 82 ft / 25 m 2,321 ft / 707 m 221.41° 220.88° Asphalt 0 ft / 0 m 0 ft / 0 m
30 148 ft / 45 m 7,954 ft / 2,424 m 303.75° 303.22° Asphalt 0 ft / 0 m 0 ft / 0 m

LEGE

Details ICAO LEGE (GRO)
Name Girona
Region Spain
Timezone Europe/Madrid (UTC+2.0)
Stats Elevation 403 ft / 123 m (AMSL)
Location 41.905202° 2.762133°
Runways 1
Magnetic Variation 1.027° E

METAR

LEGE 221230Z 17009KT 120V210 9999 VCTS SCT030CB SCT050 23/15 Q1013

Decode

TAF

TAF LEGE 221100Z 2212/2312 VRB04KT 9999 SCT035 TX25/2213Z TN12/2306Z TEMPO 2212/2217 18010KT PROB40 TEMPO 2212/2219 VRB20G30KT 4000 TSRA SCT030CB PROB40 TEMPO 2300/2306 2000 BR BECMG 2309/2312 18010KT

Decode

Destination Runways

ID Width Length Bearing (true) Bearing (mag) Surface Threshold Offset Overrun Length
02 148 ft / 45 m 7,880 ft / 2,402 m 15.50° 14.47° Asphalt 0 ft / 0 m 210 ft / 64 m
20 148 ft / 45 m 7,880 ft / 2,402 m 195.50° 194.47° Asphalt 0 ft / 0 m 200 ft / 61 m

Approach Navaids

Runway Type Ident Frequency Range Bearing (true) Bearing (mag) Slope Elevation
20 Localiser IGN 109.90 MHz 18 nm / 33 km 195.60° 194.57° - 468 ft / 143 m (AMSL)
20 Glidescope IGN 109.90 MHz 10 nm / 19 km 195.50° 194.47° 3.00° 403 ft / 123 m (AMSL)
20 DME IGN 109.90 MHz 18 nm / 33 km - - - 463 ft / 141 m (AMSL)

Popular Alternatives